Location: Pl�tzky
(52.0521°N, 11.8020°E)
Time: 06:56:44
(UTC+00:00)

Cosmos 2278 Rocket - Pass Details

Date: 22 November 2019
Orbit: 840 x 846 km, 71.0° (Epoch: 06 December)

Event Time Altitude Azimuth Distance (km) Brightness Sun altitude
Rises 16:12:21 0° 318° (NW) 3,418 5.6 -8.9°
Reaches altitude 10° 16:16:41 10° 349° (N) 2,480 4.5 -9.6°
Maximum altitude 16:18:47 12° 11° (N) 2,341 4.2 -9.9°
Drops below altitude 10° 16:20:53 10° 33° (NNE) 2,478 4.2 -10.2°
Enters shadow 16:21:39 - 40° (NE) 2,591 4.2 -10.3°
